GFSFLT1_sfc_rhum_000.txt.gz
RH
29 29 32 36 36 38 33 30 33 44 50 49 51 54 54 59 71 78 67 64 59 61 73 72 64 69 70 70 63 68 68 66
37 35 36 35 34 32 35 35 36 43 47 49 49 48 51 55 58 67 69 64 59 57 64 71 72 67 68 66 64 66 65 69
34 34 38 32 33 32 33 33 36 41 44 47 45 47 48 48 51 56 67 66 59 55 60 65 67 69 66 66 67 71 73 73
33 36 38 39 35 36 33 33 35 41 44 46 49 55 55 54 51 54 58 63 58 57 58 65 63 66 65 64 63 66 71 74
30 32 42 44 39 42 39 37 38 40 47 48 46 36 38 38 38 49 55 57 57 59 60 64 65 71 70 71 67 76 77 78
35 37 34 35 40 46 47 45 44 42 47 54 53 48 44 41 56 52 54 61 62 64 63 67 72 73 64 59 57 56 69 70
38 39 40 44 50 50 52 53 49 50 52 53 59 57 49 53 54 59 66 69 70 68 63 65 64 61 58 58 52 52 55 55
39 47 50 54 54 56 54 55 51 51 58 59 61 61 59 56 50 58 64 60 60 59 58 61 60 60 61 62 60 60 59 55
44 52 55 55 55 55 51 48 49 48 54 54 63 67 74 72 66 72 73 64 65 62 66 69 68 68 71 68 70 72 68 68
52 53 57 60 60 60 61 61 51 53 58 61 62 65 68 66 65 66 63 61 57 66 76 85 89 90 88 74 73 69 67 68
48 54 59 60 62 65 66 63 57 60 53 58 55 57 60 61 60 60 64 68 74 82 88 89 90 82 74 69 70 68 70 72
57 56 54 52 54 58 64 68 67 52 48 60 61 55 57 56 58 63 62 65 69 69 74 74 73 72 68 66 66 68 71 71
62 61 61 63 65 69 68 73 58 52 54 61 60 57 54 57 62 62 61 58 54 54 58 59 60 61 63 65 68 64 67 66
69 68 63 68 69 68 69 74 57 56 54 58 54 53 53 63 61 60 56 53 52 55 53 59 63 64 64 64 65 63 61 59
69 71 70 72 69 73 76 60 64 65 60 55 54 56 60 66 64 61 56 56 57 58 60 65 68 66 61 60 59 68 73 70
71 72 75 76 75 77 67 69 71 70 62 64 76 74 71 68 64 66 66 62 62 65 67 65 66 62 52 78 77 79 79 80
63 70 73 72 73 78 72 75 78 79 81 84 80 77 76 80 81 81 73 68 63 59 61 65 67 55 82 76 80 85 80 78
69 76 77 76 81 75 82 84 89 80 84 85 90 91 90 86 82 76 64 62 61 60 61 64 71 76 70 70 74 74 80 83
71 79 78 80 79 83 87 90 90 89 89 84 84 87 85 73 63 60 60 58 57 59 65 72 75 70 75 70 76 83 88 87

GFSFLT1_sfc_rhum_003.txt.gz
RH
37 36 36 40 45 39 35 47 50 53 55 56 54 57 62 66 65 79 77 76 73 70 76 81 74 73 73 74 68 72 70 69
39 40 41 40 43 40 32 33 36 48 51 52 52 51 52 57 58 58 74 74 71 69 70 78 78 73 70 74 70 67 70 73
36 38 39 34 35 36 37 36 37 41 45 47 48 49 50 50 54 57 68 73 68 65 63 65 74 74 73 76 71 76 75 79
38 36 36 38 36 36 34 34 35 41 45 48 50 55 56 57 52 55 53 64 66 67 61 59 68 74 70 72 74 72 71 79
34 38 39 41 39 43 42 41 42 41 46 49 52 44 42 39 44 45 46 61 57 60 58 61 64 74 74 72 69 74 74 70
35 37 37 42 44 47 55 54 50 50 53 56 60 61 56 51 54 62 58 58 68 63 61 63 69 73 72 72 71 66 64 67
40 44 50 53 59 59 57 55 53 51 53 58 66 68 63 67 65 69 64 72 73 73 70 70 67 61 60 59 53 50 56 59
49 56 56 57 60 61 58 59 58 58 59 60 57 62 72 74 72 73 72 74 73 71 65 64 65 68 70 67 72 71 66 70
56 56 60 62 66 64 66 63 61 59 64 56 57 64 72 76 80 76 81 76 78 78 82 81 82 86 85 84 89 89 90 88
61 65 61 62 62 63 68 65 64 65 64 58 61 62 64 68 68 76 78 75 75 91 93 89 88 87 89 94 92 88 79 74
59 62 60 59 62 68 72 68 70 70 52 54 55 62 64 67 72 72 74 80 86 90 87 82 82 86 89 89 84 74 75 76
61 61 62 62 65 67 71 71 76 65 56 60 65 65 64 65 68 72 75 77 72 70 66 69 83 87 82 80 76 73 74 72
64 66 67 69 70 72 71 78 78 61 64 65 60 69 63 62 67 66 66 58 56 56 60 61 65 66 66 70 71 67 69 69
65 67 64 66 73 75 75 81 67 68 68 62 58 64 60 65 62 59 56 52 50 52 52 57 60 66 66 68 69 69 69 70
68 68 72 73 75 75 79 76 74 75 72 62 59 58 63 66 63 66 73 66 60 59 60 65 69 66 61 63 66 75 77 73
72 70 71 78 81 81 82 78 80 83 86 73 81 74 72 75 91 89 79 72 64 68 68 64 65 62 56 80 74 74 76 76
70 66 70 80 80 83 78 80 88 93 90 91 86 89 90 92 92 90 89 89 80 65 62 64 68 58 84 74 78 84 79 78
70 72 80 85 84 82 84 89 92 89 91 88 89 91 95 94 90 89 90 73 64 61 63 67 74 76 72 71 73 83 83 83
62 74 86 78 80 82 90 92 92 91 80 69 66 70 70 72 66 63 63 62 60 63 70 77 80 76 74 71 74 83 88 88

GFSFLT1_sfc_rhum_006.txt.gz
RH
41 40 41 42 51 55 50 61 68 66 64 63 62 62 63 73 71 74 81 82 82 82 82 82 81 79 79 78 73 78 73 68
46 46 48 49 49 41 39 43 46 53 56 55 56 55 54 59 61 63 70 77 80 80 77 80 86 78 69 75 76 74 75 78
37 39 42 40 42 41 38 37 39 44 49 50 54 53 53 55 57 58 61 65 72 76 74 70 76 77 79 76 77 78 76 81
40 38 39 38 38 40 38 39 40 44 47 51 51 55 55 54 48 53 51 59 60 72 70 70 68 75 71 70 74 76 74 85
39 41 43 51 42 47 48 48 49 48 54 55 59 58 59 56 58 54 51 58 64 63 72 75 69 68 72 77 73 77 76 79
41 42 45 64 58 64 64 58 57 58 59 63 67 64 70 70 69 72 68 68 70 67 68 70 77 81 81 74 76 77 63 68
45 56 58 63 64 64 64 61 59 59 63 65 69 72 69 70 65 74 77 80 80 79 79 83 81 76 71 69 68 63 66 65
51 63 64 62 64 65 64 66 62 63 68 61 60 62 65 67 63 67 78 83 80 84 81 82 85 89 88 85 86 81 81 86
64 63 65 64 63 65 70 69 67 70 69 56 59 61 66 62 64 70 83 81 85 92 94 93 92 92 93 88 91 94 96 96
57 60 59 61 59 62 70 73 70 73 72 63 68 69 66 62 61 77 83 83 87 93 92 90 90 89 89 90 93 94 94 94
58 60 60 61 65 71 73 75 73 77 67 66 63 69 65 64 70 79 79 84 90 91 86 81 80 78 85 91 96 95 95 90
60 64 66 69 71 72 76 75 77 84 66 72 74 67 68 68 76 78 81 85 83 70 68 72 75 79 84 88 86 81 77 76
62 69 72 73 73 75 79 79 84 73 72 74 72 72 65 72 73 72 73 61 59 59 58 60 62 65 69 71 72 70 71 70
67 66 72 74 74 77 81 81 80 76 76 81 72 65 66 72 71 75 72 70 64 62 57 55 61 67 68 68 69 70 72 75
73 76 75 77 74 82 84 86 80 82 88 84 87 84 77 87 95 93 85 79 69 68 69 70 75 68 62 63 65 74 73 71
78 80 69 68 74 82 86 80 83 92 93 92 90 89 92 95 95 93 90 89 86 87 87 71 67 62 54 75 72 72 75 77
83 73 72 75 82 84 80 81 87 92 92 94 93 90 88 88 90 91 91 90 88 95 86 69 71 61 76 74 77 84 80 76
68 59 60 73 79 84 82 86 92 94 83 66 72 73 79 82 87 93 90 81 72 67 68 74 78 78 73 71 72 79 83 83
66 59 65 79 78 81 88 84 80 71 73 74 74 70 71 69 65 64 66 64 64 68 74 83 82 69 69 68 70 81 87 86

GFSFLT1_sfc_rhum_009.txt.gz
RH
30 30 28 31 40 45 47 48 53 57 51 52 45 45 44 47 46 46 53 52 64 65 60 66 63 56 58 59 60 52 46 43
31 35 37 38 43 43 41 42 47 45 39 39 37 39 37 37 36 42 47 46 54 60 57 60 63 61 58 59 58 61 51 52
32 33 36 37 39 38 34 33 36 34 34 37 40 41 38 39 42 46 45 48 47 49 58 55 57 58 64 64 64 55 53 54
27 28 32 37 38 40 35 37 39 43 45 38 39 42 42 38 34 36 39 48 48 50 53 55 57 58 60 63 64 62 54 52
28 31 36 42 46 51 45 45 42 44 48 44 49 42 41 41 44 41 44 50 51 49 53 57 59 60 62 62 56 63 61 54
39 46 46 47 50 53 51 46 45 48 48 49 46 49 46 46 46 48 48 49 51 53 56 60 62 60 62 66 66 68 59 56
41 47 45 46 49 53 53 48 45 48 50 47 53 56 55 52 50 49 46 47 50 57 57 63 64 64 65 63 61 63 61 59
46 45 44 46 48 51 50 49 47 51 56 49 52 56 56 54 53 50 51 51 51 58 63 67 67 70 70 70 73 78 78 80
48 48 48 46 49 50 53 50 47 50 56 54 52 55 52 52 52 53 55 55 57 69 68 66 68 68 70 71 76 88 90 94
46 47 47 49 51 54 60 56 50 52 60 57 58 58 58 58 59 57 56 62 63 69 68 68 68 69 72 73 81 89 89 94
43 42 48 51 53 57 61 58 54 56 61 56 56 58 58 58 55 60 62 64 70 72 64 58 56 58 56 67 70 72 76 75
46 47 48 52 56 54 56 58 57 60 56 60 64 62 56 53 58 62 63 67 60 53 51 52 58 64 62 62 63 60 59 58
50 51 54 56 53 51 56 63 64 59 60 62 63 55 51 57 60 58 59 54 52 52 53 64 70 66 55 55 56 52 49 48
53 53 58 54 52 59 64 66 64 58 62 66 61 60 58 71 74 73 70 68 64 66 73 83 80 63 54 51 52 51 52 52
59 60 52 50 55 64 66 64 61 64 69 68 69 71 72 75 76 75 74 70 68 76 79 76 84 68 51 46 46 53 55 54
66 56 55 51 59 62 63 60 65 72 72 73 76 77 76 83 67 62 65 63 63 67 74 70 55 51 44 58 56 58 58 58
62 60 55 53 63 62 64 65 72 77 77 63 57 58 55 58 62 65 65 60 54 52 52 55 59 51 79 78 72 58 57 55
57 45 51 60 62 65 63 65 69 70 59 56 57 62 54 52 48 46 48 51 51 51 54 58 60 57 65 66 68 54 55 57
48 46 59 61 58 58 64 60 60 58 58 62 62 56 51 51 50 49 50 49 51 52 59 57 52 47 66 68 69 63 67 64